2025-276BK

导读

卫星2025-276BK由美国于北京时间2025年11月28日发射,属于美国太空领域部署序列。公开资料暂未披露该卫星的具体任务载荷与详细轨道参数,结合同期美国太空活动推测,其大概率服务于军事航天技术验证、空间态势感知或新型卫星技术试验,延续了美国近年持续推进低轨星座部署与技术演示的发展态势,是美国2025年航天发射活动的组成部分。

基本信息
目录编号:
66723
目录名称:
FLOCK 4H 20
国际标识:
2025-276BK
轨道中心:
EARTH
卫星名称:
2025-276BK
卫星全名:
2025-276BK
卫星状态:
在轨 (已飞行287 天)
发射日期:
2025-11-28 UTC
国别 :
美国 (US)
星等 :
--
该卫星已列入 空间交会检测服务 Space Conjunction Data Service (SCDS) ,当前飞行风险评估等级: 无高风险
轨道信息
数据来源 国际轨道数据
星历时间: 2026-09-11T11:21:57+0800
16小时前
查看轨道信息
半长轴: 6877.683km
偏心率: 0.0002999
轨道倾角: 97.416°
近地点辐角 35.300°
升交点赤经 326.844°
平近点角 324.843°
近地点: 497.483km
远地点: 501.609km
周期: 94.607分钟
每日圈数: 15.220873
详细信息
使用方式:
暂无
2D轨道图
3D轨道图
轨道高度分析图
轨道倾角分析图
轨道综合分析图
查看轨道综合分析图
交会数据列表
事件ID 空间交会对象 最接近时刻(TCA) 交会距离 交会风险概率(CRP) 交会风险指数(CRI) 操作
CDM_260911-174404-569306-672324
2026-09-11T
17:44:03+0000
0.713 km
远距离
5.140389E-5 中风险 0.69
CDM_260911-183104-569306-672324
2026-09-11T
18:31:21+0000
1.795 km
极远距离
2.488122E-6 低风险 0.43
CDM_260912-115105-614306-672321
2026-09-12T
11:51:22+0000
2.455 km
极远距离
1.73002E-6 低风险 0.4
CDM_260912-123805-614306-672321
2026-09-12T
12:38:43+0000
2.550 km
极远距离
1.619621E-6 低风险 0.39
与全量物体交会距离演化趋势
与全量物体交会风险概率演化趋势